Track YAOGAN-31 B now! 10-day predictions YAOGAN-31 B is classified as:
1 43276U 18034B 23275.34571172 -.00000021 00000-0 10567-3 0 9993 2 43276 63.3987 113.9066 0186925 4.7445 355.5298 13.45283851269184